Other Public Products
Issued by NWS Charleston, SC

Home | Current Version | Previous Version | Text Only | Print | Product List | Glossary On
Versions: 1 2 3 4 5 6 7 8 9 10 11 12 13 14 15 16 17 18 19 20 21 22 23 24 25 26 27 28 29 30 31 32 33 34 35 36 37 38 39 40 41 42 43 44 45 46 47 48 49 50
000
FPUS82 KCHS 212112
OPUCHS

TEST...KCHS/KSAV Gateway Observations...TEST
National Weather Service Charleston SC
500 PM EDT FRI JUL 21 2017

NOTE: "fair" indicates few or no clouds below 12,000 feet with no
significant weather and/or obstructions to visibility.

SCZ050-WAZ558-NCZ071-TXZ119-213-PAZ071-DCZ001-FLZ074-172-MI076-
NYZ176-178-MAZ016-IL014-TNZ027-NJZ106-GAZ044-MD014-212200-

...Gateway Observations for Charleston International...

CITY           SKY/WX    TMP DP  RH WIND       PRES   REMARKS
Chas Airport   MOSUNNY   90  72  55 S12       29.99F HX  97
Seattle        PTSUNNY   73  52  47 SW7       30.15F
Charlotte      MOSUNNY   95  69  42 VRB3      29.99F HX 100
Dallas DFW     MOSUNNY   99  68  36 S7        29.92F HX 104
Dallas Love    MOSUNNY   98  67  36 S9        29.93F HX 102
Philladelphia  PTSUNNY   93  68  43 SW12      29.89F HX  97
Wash National  PTSUNNY   96  71  44 SW7       29.89F HX 103
Baltimore      PTSUNNY   91  71  51 SE7       29.89F HX  97
Miami          CLOUDY    79  74  84 S6        30.06R
Detroit        CLOUDY    88  67  49 SW5       29.96F HX  91
Newark         CLOUDY    93  66  40 W14G20    29.86S HX  96
Laguardia      PTSUNNY   93  64  38 W13       29.85S HX  94
J F K          PTSUNNY   94  64  37 W14       29.86F HX  95
Boston Logan   PTSUNNY   90  61  37 W9        29.77F HX  90
Ft. Lauderdale MOSUNNY   78  75  90 SW6       30.05
Chicago O`Hare CLOUDY    86  70  58 S8        29.93S HX  90
Chicago Midway CLOUDY    89  69  51 S8        29.92F HX  93
Houston Bush   PTSUNNY   93  73  52 E8        29.96F HX 102
Houston Hobby  CLOUDY    95  72  47 VRB5      29.96F HX 103
Nashville      PTSUNNY   95  70  44 S5        29.99F HX 101
Atlanta        PTSUNNY   91  70  49 NW3       30.00F HX  96

$$

GAZ044-118-TXZ119-213-NCZ071-DCZ001-MDZ014-506-PAZ021-071-NJZ106-
NYZ176-178-MAZ106-OHZ011-021-055-MIZ076-KYZ091-ILZ014-INZ047-
MNZ060-ONZ431-212200-

...Gateway Observations for Savannah International...

CITY           SKY/WX    TMP DP  RH WIND       PRES   REMARKS
Savannah Arpt  MOSUNNY   95  74  50 S12       29.99S HX 105
Atlanta        PTSUNNY   91  70  49 NW3       30.00F HX  96
Charlotte      MOSUNNY   95  69  42 VRB3      29.99F HX 100
Dallas DFW     MOSUNNY   99  68  36 S7        29.92F HX 104
Houston Bush   PTSUNNY   93  73  52 E8        29.96F HX 102
Wash National  PTSUNNY   96  71  44 SW7       29.89F HX 103
Wash Dulles    MOSUNNY   91  69  48 SW3       29.90F HX  96
Baltimore      PTSUNNY   91  71  51 SE7       29.89F HX  97
Philadelphia   PTSUNNY   93  68  43 SW12      29.89F HX  97
Newark         CLOUDY    93  66  40 W14G20    29.86S HX  96
Laguardia      PTSUNNY   93  64  38 W13       29.85S HX  94
J F K          PTSUNNY   94  64  37 W14       29.86F HX  95
Boston         PTSUNNY   90  61  37 W9        29.77F HX  90
Pittsburg      PTSUNNY   87  71  58 W7        29.95F HX  93
Akron          PTSUNNY   92  66  42 VRB5      29.97S HX  94
Cleveland      CLOUDY    88  70  55 N8        29.97F HX  93
Cincinnati     MOSUNNY   88  78  72 W3        29.99F HX 101
Columbus       CLOUDY    81  72  73 SW6       29.99F
Detroit        CLOUDY    88  67  49 SW5       29.96F HX  91
Chicago O`Hare CLOUDY    86  70  58 S8        29.93S HX  90
Minneapolis    CLOUDY    82  68  62 S12G18    29.84S
Indianapolis   PTSUNNY   86  72  62 SW5       29.96F HX  92
Toronto Canada PTSUNNY   84  54  34 NW10G18   29.90F

$$




USA.gov is the U.S. government's official web portal to all federal, state and local government web resources and services.